Das Wetter in  D-61279 Heinzenberg / Taunus





Wetter Minimum- & Maximum-Werte im Februar 2011

Standort: Heinzenberg / Taunus - Höhe 297 m         8 24' 1" Ost 50 21' 51" Nord
(   3-stündige Aktualisierung    letzte Aktualisierung um 19:04 am 28.02.2011  )


Messgrösse

Minimum

Maximum

Durchschnitt

Temperatur West /
Luftfeuchte West
Anklicken für Monats-Diagramm

-11,5 C

07:47
23.02.2011

39 %

13:32
23.02.2011

11,3 C

16:39
07.02.2011

99 %

18:47
11.02.2011

Temp

1,9 C

Feuchte

87 %

Temperatur Ost /
Luftfeuchte Ost
Anklicken für Monats-Diagramm

-11,9 C

07:57
23.02.2011

--

--
--

11,6 C

16:54
07.02.2011

--

--
--

1,7 C

--

Luftdruck Anklicken für Monats-Diagramm

1000,1 hPa

01:36
16.02.2011

1033,0 hPa

10:24
02.02.2011

1019,4 hPa

Taupunkt

-13,2 C

07:47
23.02.2011

9,1 C

19:57
11.02.2011

-0,3 C

Windchill
( gefühlte Temperatur )

-17,8 C

18:28
01.02.2011

11,3 C

16:39
07.02.2011

-1,4 C

Windgeschwindigkeit /
Windrichtung
Anklicken für Monats-Diagramm

---

57,7 km/h / W

03:17
05.02.2011

9,8 km/h
W-SW

Helligkeit /
Sonnenschein
Anklicken für Monats-Diagramm
Anklicken für Monats-Diagramm

Sonnenschein:

58:05 Stunden

Max: 8:30 Std am
09.02.2011

73,4 klux

12:12
28.02.2011

12,8 klux

Solarstrahlung Anklicken für Monats-Diagramm

---

502 W/m

12:12
28.02.2011

97 W/m

Regenmenge
    Februar 2011
Anklicken für Monats-Diagramm

Insgesamt 48,5 l/m

in 68:25 Stunden
an 16 Tagen

19,6 l/m

18:42
11.02.2011

Gesamtmenge

48,5 l/m

Regen-Tage
    Februar 2011
Anklicken für Monats-Diagramm

>   0 mm/Tag

>   2 mm/Tag

>   5 mm/Tag

> 10 mm/Tag

> 20 mm/Tag

16 Tage     
5 Tage     
2 Tage     
  1 Tag     
0 Tage     

Eisige Tage Februar 2011 / 2010

Tmin ≤ -10C     

  1 Tag

/

  1 Tag

Eistage Februar 2011 / 2010

Tmax <     0C     

3 Tage

/

8 Tage

Frosttage Februar 2011 / 2010

Tmin ≤     0C     

17 Tage

/

18 Tage

Kalte Tage Februar 2011 / 2010

Tmax <   10C     

24 Tage

/

24 Tage

Warme Tage Februar 2011 / 2010

Tmax ≥   20C     

0 Tage

/

0 Tage

Sommertage Februar 2011 / 2010

Tmax ≥   25C     

0 Tage

/

0 Tage

Heisse Tage Februar 2011 / 2010

Tmax ≥   30C     

0 Tage

/

0 Tage


Monatsdiagramm Februar 2011

Die Kurven zeigen den Durchschnittswert des jeweiligen Tages an


Wetter-Monatsübersicht Februar 2011
Datum
  Temperatur
   Luftdruck
   Wind
  Regen
   Luftfeuchte
   Helligkeit

Sonnen-
schein


Temp.

Min.
Temp.

Max.
Temp.


Luftdruck

Min.
Luftdruck

Max.
Luftdruck

-Geschw.
Haupt-Richtg.

Max.
Wind

Menge /
Dauer


Feuchte

Min.
Feuchte

Max.
Feuchte


Helligkeit

Max.
Helligkeit

1.
Februar
-5,5 C-9,0 C
00:08
-1,8 C
14:38
1028,8 hPa1027,7 hPa
01:08
1030,2 hPa
20:43
7,1 km/h
W-SW
25,0 km/h
18:28  
---
90 %79 %
15:13
94 %
06:18
12,8 klux43,4 klux
13:48
2:30 Std 
2.
Februar
-2,1 C-4,5 C
00:04
0,7 C
15:24
1031,2 hPa1029,8 hPa
20:34
1033,0 hPa
10:24
5,6 km/h
W-SW
24,6 km/h
22:35  
0,9 l/m
50 Minuten
94 %91 %
16:04
97 %
08:19
6,1 klux12,8 klux
13:34
--- 
3.
Februar
0,4 C-1,6 C
00:10
2,7 C
16:05
1028,5 hPa1026,5 hPa
07:05
1029,8 hPa
00:10
11,6 km/h
W-SW
27,6 km/h
15:35  
0,9 l/m
5:45 Stunden
95 %93 %
01:25
98 %
13:35
6,0 klux29,6 klux
15:20
20 Min 
4.
Februar
4,1 C0,4 C
02:16
7,6 C
22:47
1024,7 hPa1022,3 hPa
22:47
1029,5 hPa
00:01
29,1 km/h
W-SW
57,2 km/h
22:52  
---
10 Minuten
89 %80 %
22:37
95 %
06:26
4,7 klux42,9 klux
11:06
10 Min 
5.
Februar
8,0 C7,5 C
08:42
9,0 C
12:57
1024,0 hPa1022,3 hPa
05:12
1025,5 hPa
17:22
37,8 km/h
W
57,7 km/h
03:17  
---
78 %74 %
12:57
81 %
23:48
7,7 klux26,8 klux
13:22
--- 
6.
Februar
7,5 C4,3 C
19:48
10,2 C
14:38
1025,8 hPa1025,1 hPa
15:28
1027,5 hPa
10:13
25,8 km/h
W
48,2 km/h
03:33  
---
77 %65 %
14:53
84 %
21:33
16,2 klux50,7 klux
14:18
2:55 Std 
7.
Februar
6,0 C2,2 C
08:09
11,3 C
16:39
1021,9 hPa1017,1 hPa
20:49
1026,9 hPa
02:19
15,1 km/h
W-SW
32,0 km/h
22:35  
---
69 %46 %
21:14
86 %
08:59
24,4 klux47,5 klux
12:34
6:50 Std 
8.
Februar
5,5 C-2,0 C
23:35
10,0 C
15:50
1022,9 hPa1018,1 hPa
00:20
1026,7 hPa
23:35
13,5 km/h
W
34,0 km/h
00:15  
---
40 Minuten
73 %51 %
15:55
88 %
23:40
23,9 klux48,5 klux
12:45
6:50 Std 
9.
Februar
0,6 C-4,6 C
08:00
9,4 C
16:25
1025,0 hPa1023,2 hPa
16:25
1027,1 hPa
08:30
2,4 km/h
SO
20,6 km/h
14:50  
---
81 %47 %
16:05
94 %
09:20
27,5 klux49,8 klux
12:25
8:30 Std 
10.
Februar
2,2 C-2,7 C
07:31
8,4 C
14:36
1020,3 hPa1015,2 hPa
23:37
1024,5 hPa
00:26
6,3 km/h
W-SW
21,8 km/h
21:01  
3,5 l/m
5:11 Stunden
89 %66 %
14:51
97 %
10:06
17,5 klux46,7 klux
12:16
2:50 Std 
11.
Februar
8,8 C6,9 C
00:02
10,4 C
13:37
1013,1 hPa1011,8 hPa
10:22
1015,2 hPa
00:02
21,4 km/h
W
36,8 km/h
12:47  
19,6 l/m
13:22 Stunden
96 %89 %
13:37
99 %
18:47
5,0 klux28,2 klux
12:27
--- 
12.
Februar
3,8 C2,0 C
23:09
8,4 C
00:03
1016,5 hPa1014,8 hPa
22:49
1017,7 hPa
13:43
6,4 km/h
O-SO
27,7 km/h
12:28  
9,7 l/m
10:15 Stunden
99 %98 %
04:08
99 %
00:03
3,4 klux9,4 klux
11:58
--- 
13.
Februar
3,8 C2,1 C
00:04
6,4 C
15:09
1012,4 hPa1009,4 hPa
21:44
1014,8 hPa
00:04
5,4 km/h
O-SO
27,9 km/h
22:09  
4,4 l/m
4:30 Stunden
97 %91 %
14:59
99 %
00:04
12,7 klux56,8 klux
12:14
35 Min 
14.
Februar
4,4 C3,2 C
02:35
6,8 C
15:50
1008,3 hPa1006,2 hPa
20:20
1010,5 hPa
00:45
13,5 km/h
O-SO
27,6 km/h
14:35  
1,5 l/m
3:00 Stunden
94 %87 %
16:00
97 %
00:30
10,5 klux35,5 klux
14:05
5 Min 
15.
Februar
2,7 C2,1 C
17:56
3,7 C
00:01
1002,4 hPa1000,2 hPa
21:26
1006,3 hPa
00:01
14,8 km/h
SO
30,8 km/h
15:36  
1,5 l/m
6:05 Stunden
97 %95 %
17:06
98 %
05:51
5,6 klux23,4 klux
11:46
--- 
16.
Februar
3,2 C-0,9 C
23:47
7,6 C
14:46
1001,4 hPa1000,1 hPa
01:36
1002,3 hPa
07:56
7,3 km/h
O-SO
22,6 km/h
11:26  
---
5 Minuten
93 %80 %
16:21
98 %
06:51
17,2 klux51,9 klux
14:06
2:15 Std 
17.
Februar
0,5 C-1,1 C
01:32
1,5 C
10:07
1005,0 hPa1001,4 hPa
05:52
1010,9 hPa
23:18
3,7 km/h
O-NO
15,4 km/h
15:22  
---
92 %85 %
15:22
99 %
02:57
7,3 klux19,6 klux
09:47
--- 
18.
Februar
0,6 C-0,2 C
02:48
1,5 C
14:28
1014,8 hPa1010,9 hPa
00:03
1018,1 hPa
23:03
0,4 km/h
NO
6,7 km/h
05:18  
---
40 Minuten
94 %90 %
00:03
96 %
09:53
3,3 klux7,8 klux
11:08
--- 
19.
Februar
0,6 C-0,7 C
23:09
1,7 C
13:33
1017,7 hPa1016,9 hPa
14:28
1019,1 hPa
11:38
1,2 km/h
O
12,3 km/h
23:49  
---
94 %91 %
21:13
97 %
00:28
4,13 klux11,30 klux
13:28
--- 
20.
Februar
-1,6 C-4,3 C
23:55
-0,5 C
00:04
1017,9 hPa1016,2 hPa
04:14
1019,8 hPa
23:55
6,9 km/h
O-NO
23,3 km/h
17:04  
---
83 %77 %
16:44
91 %
00:04
6,4 klux18,3 klux
12:34
--- 
21.
Februar
-4,1 C-6,6 C
07:40
-1,9 C
14:55
1019,3 hPa1017,4 hPa
16:45
1021,1 hPa
07:40
5,8 km/h
O-NO
18,0 km/h
05:40  
---
75 %68 %
14:00
81 %
07:54
10,4 klux26,6 klux
12:55
--- 
22.
Februar
-5,3 C-9,8 C
07:41
0,4 C
15:56
1020,4 hPa1017,8 hPa
00:01
1025,4 hPa
23:57
2,8 km/h
NO
14,2 km/h
16:26  
---
73 %56 %
13:31
87 %
06:36
27,6 klux51,1 klux
12:46
8:10 Std 
23.
Februar
-4,4 C-11,5 C
07:47
2,7 C
14:42
1027,1 hPa1025,4 hPa
00:02
1029,3 hPa
10:42
3,9 km/h
O-SO
17,0 km/h
15:12  
---
68 %39 %
13:32
89 %
08:57
25,5 klux50,9 klux
12:57
6:35 Std 
24.
Februar
-0,4 C-2,3 C
07:43
1,1 C
14:48
1026,4 hPa1024,6 hPa
05:43
1029,5 hPa
23:34
0,8 km/h
O-SO
10,1 km/h
12:53  
4,3 l/m
9:55 Stunden
84 %59 %
00:03
98 %
21:58
9,1 klux23,2 klux
10:28
--- 
25.
Februar
1,9 C0,1 C
03:39
4,1 C
14:59
1029,6 hPa1027,2 hPa
22:59
1031,5 hPa
09:34
1,3 km/h
O-SO
15,5 km/h
11:19  
---
15 Minuten
97 %94 %
15:04
99 %
01:04
9,7 klux28,7 klux
12:14
--- 
26.
Februar
2,9 C-1,3 C
04:09
7,2 C
11:59
1018,9 hPa1011,3 hPa
21:59
1027,5 hPa
02:14
6,1 km/h
SO
26,1 km/h
14:49  
1,4 l/m
2:56 Stunden
86 %65 %
11:34
98 %
00:04
20,2 klux58,6 klux
11:14
3:55 Std 
27.
Februar
4,0 C2,6 C
22:15
5,7 C
13:10
1013,9 hPa1010,4 hPa
04:15
1018,8 hPa
22:47
15,9 km/h
W
32,9 km/h
16:35  
0,8 l/m
4:46 Stunden
93 %86 %
13:20
98 %
01:25
8,9 klux28,9 klux
12:35
--- 
28.
Februar
3,9 C-0,3 C
23:48
9,4 C
16:27
1024,3 hPa1018,8 hPa
00:02
1029,6 hPa
23:48
3,5 km/h
NO
13,8 km/h
00:07  
---
80 %59 %
16:17
94 %
07:42
25,1 klux73,4 klux
12:12
5:35 Std 



Februar
2011

Temperatur

  

Luftdruck

  

Wind

  

Regen

  

Luftfeuchte

  

Helligkeit

Sonnen-
schein

Min

Max

Min

Max

Max

Max

Min

Max

Max

Max

1,9 C

-11,5 C

07:47 Uhr
23.02.2011

11,3 C

16:39 Uhr
07.02.2011

1019,4 hPa

1000,1 hPa

01:36 Uhr
16.02.2011

1033,0 hPa

10:24 Uhr
02.02.2011

9,8 km/h

W-SW

57,7 km/h

03:17 Uhr
05.02.2011

19,6 l/m

13:22 Stunden
11.02.2011

87 %

39 %

13:32 Uhr
23.02.2011

99 %

18:47 Uhr
11.02.2011

12,8 klux

73,4 klux

12:12 Uhr
28.02.2011

8:30 Std

am
09.02.2011

Gesamt

Gesamt

48,5 l/m

16 Tage
68:25 h

58:05 Std


Wetter-Diagramme Februar 2011     Heinzenberg / Taunus   
TemperaturLuftfeuchte
SolarstrahlungLuftdruck
HelligkeitSonnenschein
RegenmengeRegendauer
Wind-GeschwindigkeitWind-Richtung